GFSWCAN_sfc_wetblb_021.txt.gz
Wetbulb
45.93 45.93 46.03 46.02 46.54 47.11 47.07 47.13 47.36 47.63 47.70 48.09 48.13 49.04 49.63 50.31 50.73 49.36 46.46 46.28 43.05 38.23 38.45 40.28 40.06 37.59 38.17 37.78 34.61 37.49 36.00 38.20 36.60 32.46 31.98 32.07 31.93 34.76 33.91 35.55 34.71 34.27 32.08 31.70 33.38 32.30 32.99 45.59 43.60 39.82 42.48 45.57 45.64 46.91
45.95 45.72 45.81 46.04 46.39 46.64 46.78 46.76 46.97 47.35 47.57 48.06 48.17 48.68 49.54 50.16 50.46 49.85 44.98 46.43 46.89 40.08 38.67 43.80 42.78 43.53 42.20 41.52 38.37 38.88 37.34 37.36 39.02 34.18 35.25 34.63 33.45 34.63 34.53 30.33 38.83 33.11 37.25 35.46 36.58 36.78 42.16 44.00 43.82 46.45 46.05 45.55 46.56 47.19
46.18 45.75 45.82 45.82 46.10 46.42 46.64 46.57 46.95 47.23 47.62 47.99 48.34 48.36 49.41 49.86 49.94 49.48 46.54 45.87 44.13 39.45 39.69 39.80 39.88 43.77 45.20 44.38 45.19 36.41 39.94 40.72 40.97 42.02 37.80 35.34 32.91 35.64 31.75 32.43 32.55 37.46 40.33 37.26 37.55 39.52 40.40 43.19 45.25 45.70 46.25 46.26 47.92 48.83
46.67 46.45 46.22 46.03 46.03 46.23 46.50 46.55 46.71 46.97 47.38 47.96 48.39 48.83 48.79 49.23 49.35 48.34 45.95 46.90 44.25 40.47 35.05 38.03 43.99 43.30 46.29 46.61 44.98 43.69 41.82 42.82 41.91 41.72 38.19 37.73 35.28 39.39 34.81 35.23 35.48 37.98 39.51 37.30 37.28 40.11 40.65 43.64 43.44 44.61 44.93 47.09 47.87 49.29
46.87 46.85 46.58 46.45 46.31 46.19 46.22 46.55 46.41 46.71 47.20 47.81 48.33 48.55 48.40 48.54 48.88 49.13 47.39 47.68 47.44 41.41 36.44 37.96 43.59 44.28 46.39 46.70 45.54 44.66 42.85 41.42 39.92 38.58 38.42 36.35 39.43 38.65 40.17 38.94 34.91 39.13 37.74 36.22 35.98 40.41 39.54 39.98 43.92 45.36 44.78 45.97 48.19 48.02
47.42 47.51 47.31 47.09 46.72 46.37 46.30 46.40 46.71 46.95 47.28 47.43 47.57 47.95 47.86 48.67 48.10 45.48 41.69 45.03 45.70 44.58 39.12 34.20 42.98 42.09 44.61 46.44 45.63 44.89 44.01 41.61 40.97 40.48 40.28 40.96 40.92 39.99 35.90 35.40 38.26 40.08 40.88 42.86 40.62 43.92 43.33 44.07 45.69 46.39 45.21 46.82 48.55 48.75
47.59 47.74 47.53 47.28 46.81 46.88 46.35 46.30 46.96 47.11 47.18 47.42 47.55 47.68 49.07 49.67 46.83 42.63 42.03 44.73 45.94 45.93 39.29 35.03 35.82 42.80 44.12 45.39 45.79 44.54 43.55 42.94 41.88 40.74 40.02 39.14 39.78 39.83 37.76 33.91 39.26 40.91 41.73 42.50 43.64 44.64 43.05 44.16 43.07 46.12 46.66 47.27 48.65 49.83
47.77 47.71 47.83 47.47 47.10 47.13 46.67 46.52 46.69 47.17 47.15 46.92 46.97 48.62 49.79 48.52 47.36 45.48 47.38 47.10 47.26 43.79 41.76 33.76 36.26 39.38 44.41 41.13 40.47 43.80 41.34 41.53 41.10 40.02 40.71 38.07 39.86 39.40 34.71 39.43 40.04 41.04 41.59 42.01 43.05 44.08 43.78 44.60 45.07 46.21 47.48 47.56 47.36 47.78
47.75 47.77 47.78 47.82 47.44 47.14 46.85 46.58 46.52 46.98 46.78 46.68 47.29 48.78 47.02 44.62 43.63 44.65 48.63 48.40 46.84 42.45 37.84 36.65 32.68 33.23 43.69 42.62 41.56 41.21 40.53 37.01 41.26 37.84 38.43 38.70 35.31 34.11 36.84 37.14 38.12 39.48 39.38 41.43 42.68 43.31 43.94 44.26 45.19 45.63 45.73 46.72 46.80 47.79
47.64 47.93 47.96 47.91 47.04 47.22 46.78 46.20 46.56 46.83 46.99 45.31 46.02 44.02 40.99 43.69 47.75 49.07 44.87 42.09 41.98 42.10 40.10 36.15 40.14 35.44 40.56 40.52 38.66 37.65 38.46 35.08 33.79 37.17 40.12 34.78 35.47 39.07 40.44 40.12 41.05 42.30 42.39 43.57 41.60 39.92 41.73 42.68 43.81 44.78 44.70 46.29 47.56 48.83
47.53 47.53 47.71 47.51 47.00 47.12 46.73 46.30 46.51 46.79 43.10 40.67 38.07 40.16 42.98 46.55 44.57 41.99 39.22 37.84 38.75 37.51 40.74 40.62 40.08 37.67 42.75 37.37 35.50 38.41 35.80 35.40 32.08 35.48 35.08 34.99 34.41 39.02 42.54 42.18 43.47 44.96 45.32 44.96 45.22 44.89 44.74 44.87 44.40 44.92 45.84 46.42 47.69 48.59
47.24 47.16 47.39 47.15 47.06 46.99 46.48 46.37 46.53 42.60 40.35 40.17 40.16 42.13 42.29 42.30 38.78 35.65 34.89 36.45 36.99 36.31 39.82 39.60 40.70 41.24 41.23 41.68 37.47 38.42 33.25 35.19 29.32 37.05 34.75 32.74 37.61 42.06 42.14 42.08 43.63 45.17 45.85 45.19 46.06 46.07 46.47 47.23 47.25 46.87 46.87 47.38 47.87 49.53
46.84 46.96 47.10 47.12 46.96 46.68 46.30 46.15 45.98 45.00 44.74 44.44 41.14 39.63 39.26 37.93 32.90 32.63 30.53 33.99 34.84 38.74 40.78 40.93 38.86 40.89 39.58 39.96 36.19 36.23 31.74 31.99 36.36 34.89 33.59 36.35 41.32 42.65 42.81 42.31 43.36 45.01 46.59 45.95 45.99 47.08 47.62 48.13 48.61 48.36 47.62 48.47 49.24 49.64
46.23 46.48 46.64 46.87 46.77 46.41 45.20 45.31 45.41 43.92 40.76 38.09 37.64 33.23 34.09 33.09 34.86 36.56 37.14 38.07 40.76 39.45 40.01 39.84 39.12 39.91 39.86 36.99 36.79 31.71 33.98 33.74 30.74 30.29 32.12 39.01 42.17 42.82 43.30 43.75 44.00 44.14 45.14 45.21 45.38 46.02 46.34 46.71 47.96 49.75 49.83 49.63 48.89 48.46
46.43 46.62 46.62 46.18 45.62 44.19 45.17 45.76 44.74 42.93 39.43 37.04 38.92 33.48 35.01 38.67 39.16 39.94 40.41 39.94 41.27 41.36 40.02 38.41 37.87 38.33 37.17 34.93 35.63 32.63 29.88 28.73 30.68 33.65 39.31 43.14 43.77 43.41 43.26 43.66 44.09 44.90 45.58 45.89 46.09 45.76 46.41 46.79 47.28 47.72 50.24 50.79 50.11 49.49
46.15 45.77 43.76 43.87 44.26 45.01 45.15 44.49 42.79 42.77 40.07 38.97 39.03 37.17 38.42 36.66 37.86 38.38 39.53 40.19 42.49 40.23 39.84 39.41 36.71 34.65 33.84 34.27 30.78 29.54 28.74 28.08 35.45 36.17 42.91 43.90 43.59 43.78 43.88 44.47 45.23 45.81 46.28 46.62 47.09 47.29 47.57 46.83 46.36 46.92 47.66 49.03 50.37 50.23
45.66 42.64 43.22 44.16 44.38 45.00 44.75 41.06 41.76 41.62 40.38 40.96 39.57 41.97 40.13 39.06 38.94 40.01 40.68 41.28 42.06 40.65 38.16 37.79 34.67 33.17 34.43 31.90 29.68 32.87 31.02 37.44 40.53 42.90 44.33 44.05 43.51 43.57 44.14 44.62 45.19 45.73 46.23 46.73 46.85 47.16 46.69 47.47 48.22 47.09 46.00 46.91 48.60 50.16
42.76 44.37 44.66 44.36 44.34 42.99 40.62 41.42 40.31 41.26 39.09 42.08 39.78 41.02 39.01 41.15 40.59 40.98 41.82 41.76 41.22 40.59 39.35 38.50 38.73 35.34 33.78 31.22 33.36 36.26 37.63 40.72 42.75 42.92 44.09 45.03 44.55 44.47 44.01 44.67 45.06 45.20 45.95 46.57 47.30 46.98 47.13 47.15 46.25 46.82 47.22 47.04 47.38 47.41
43.99 44.88 45.38 45.37 44.12 39.98 35.93 38.27 41.27 35.71 39.65 41.72 40.52 40.07 39.61 40.76 41.60 42.78 43.11 42.23 42.89 43.03 41.62 39.58 37.53 36.10 37.39 38.36 38.87 41.13 42.01 41.73 42.96 44.60 44.70 45.31 45.29 44.50 44.06 44.90 45.26 45.71 45.88 46.35 46.97 46.78 47.60 47.72 47.57 48.44 48.21 46.98 45.44 45.76
45.27 44.98 44.95 44.11 42.93 37.34 35.48 37.43 42.87 39.29 37.15 40.44 39.90 39.29 39.69 40.59 41.70 41.38 42.02 41.13 40.81 40.55 38.19 37.05 38.43 41.29 41.09 43.45 43.79 44.10 44.65 44.60 43.87 43.73 44.32 45.97 46.11 45.39 45.04 44.58 44.95 45.64 46.28 46.79 47.31 42.72 46.98 46.73 47.75 47.99 48.43 46.90 45.88 44.60
41.69 42.02 41.74 41.84 39.84 37.78 36.57 36.23 36.22 38.51 39.59 38.49 40.66 40.05 39.83 39.54 38.84 38.92 39.73 40.86 38.45 38.52 37.79 40.72 41.97 44.08 45.22 45.00 45.20 45.51 45.27 44.59 44.08 44.75 44.69 44.11 46.65 45.97 45.71 46.13 45.43 46.09 45.42 45.79 45.61 46.16 45.57 46.23 45.93 46.69 48.55 45.77 47.67 45.87
40.40 41.22 39.94 41.06 36.86 37.70 35.79 37.84 35.16 37.17 35.75 38.48 37.99 39.09 37.36 36.99 37.72 38.94 39.63 37.82 38.76 40.76 41.43 42.61 43.41 44.47 44.12 42.86 44.22 44.97 46.49 45.89 45.93 44.92 40.18 42.36 44.82 45.45 45.70 45.13 44.66 44.49 45.20 45.39 45.54 45.48 46.28 47.08 44.93 45.83 45.47 45.66 44.91 44.08
40.60 39.51 37.49 37.10 34.16 34.39 34.14 40.06 34.79 37.22 32.42 33.88 36.67 35.43 35.07 35.07 37.35 39.10 36.58 38.51 40.38 43.10 43.91 43.62 44.34 44.93 44.38 45.03 44.97 45.38 45.71 45.62 45.41 45.55 45.23 45.83 46.43 46.21 45.82 45.47 45.52 45.07 45.03 45.88 46.44 45.99 45.65 39.86 44.06 44.38 43.77 44.59 45.46 44.37
40.41 36.30 33.95 32.50 32.09 30.04 35.57 34.36 37.20 36.86 35.56 34.82 34.42 33.67 34.94 36.23 37.57 36.03 34.47 38.33 41.24 42.31 42.00 42.69 42.90 42.80 43.89 43.55 44.03 45.29 45.77 46.04 46.00 45.45 45.58 45.33 45.16 46.19 46.41 46.46 46.27 46.20 45.87 46.43 46.78 45.97 45.58 45.61 41.48 43.09 42.79 43.52 42.18 41.96
32.49 30.85 31.63 29.20 33.23 32.92 30.95 32.05 33.34 32.59 32.31 34.25 33.32 33.62 35.27 36.49 34.21 33.71 33.69 37.64 40.33 40.77 42.14 43.02 42.85 43.09 42.84 43.77 45.12 45.05 45.16 45.37 44.69 44.35 45.07 45.23 45.82 45.78 45.79 45.54 44.66 44.65 45.81 46.80 45.65 44.59 44.19 44.53 43.82 43.11 42.06 39.60 39.57 41.42
27.29 29.88 29.71 28.91 29.97 30.32 31.37 30.57 31.67 32.44 32.77 32.45 33.60 35.81 35.13 33.79 31.36 31.32 35.13 36.45 37.57 38.48 38.93 39.49 40.93 41.77 41.94 43.60 44.26 43.98 44.37 46.18 45.47 43.79 44.65 45.14 45.41 45.17 43.63 42.59 42.64 43.98 45.52 46.85 45.91 43.62 42.89 42.32 41.70 40.64 39.21 38.07 35.42 38.98
26.50 25.64 30.48 34.08 33.25 32.85 32.06 33.68 34.42 32.86 31.28 30.93 33.53 32.37 32.88 28.98 29.71 34.88 37.53 39.40 39.64 40.83 41.20 41.60 41.99 41.60 41.99 43.48 45.25 46.67 46.83 45.45 45.92 46.04 45.88 45.06 44.40 44.60 44.43 42.98 41.84 43.55 44.51 45.01 43.47 43.03 41.78 40.99 40.13 38.84 37.68 37.39 36.62 36.91
29.70 29.77 26.81 30.42 29.88 32.41 30.41 31.09 30.69 30.93 32.94 35.62 34.96 31.51 30.51 30.92 32.50 38.18 39.97 41.82 42.12 42.51 42.56 42.35 41.36 42.26 43.42 44.81 45.31 44.22 43.86 44.72 44.30 43.92 43.02 42.60 42.83 43.13 43.83 44.73 44.69 33.20 43.53 43.22 42.34 42.56 41.07 39.99 39.25 37.72 36.79 36.01 35.89 36.52
28.98 30.84 30.52 27.48 29.39 30.00 30.38 30.42 31.03 34.37 37.11 36.13 33.59 32.72 34.27 38.78 40.59 41.15 42.44 42.79 43.61 42.62 41.26 41.46 42.28 42.04 42.09 42.07 43.34 44.59 44.34 43.46 42.16 40.16 40.18 40.12 39.64 40.76 42.54 44.43 44.52 44.45 42.38 38.64 31.28 35.34 37.74 37.92 37.67 37.22 36.30 35.50 35.78 35.85
27.74 30.95 28.27 28.50 27.13 26.96 31.29 33.81 33.66 36.57 37.98 38.33 38.58 37.50 37.58 39.11 41.66 42.78 41.46 40.83 40.34 40.12 41.24 41.36 41.20 40.48 40.08 40.65 39.82 39.24 39.92 41.73 41.79 41.78 40.37 40.05 40.25 40.91 41.14 41.71 43.00 43.99 43.29 41.76 39.61 37.28 31.82 35.74 34.09 36.04 34.92 34.96 33.89 33.46
32.02 30.47 28.47 28.77 28.00 31.97 33.91 35.72 36.36 36.45 36.00 35.65 37.19 35.19 35.02 37.13 39.86 38.59 38.22 38.51 39.38 40.58 40.77 40.06 39.69 41.23 40.28 39.11 39.10 38.39 37.32 38.84 39.98 40.38 40.71 40.46 40.21 40.00 40.30 40.75 41.60 42.81 43.06 40.79 38.80 37.27 36.06 34.86 34.12 32.93 32.18 31.23 30.63 30.75
30.14 29.02 28.04 25.67 27.89 33.03 34.52 33.05 33.17 32.54 33.54 33.20 33.15 35.21 35.31 34.55 33.32 34.87 35.79 36.33 36.09 36.00 35.36 37.77 38.89 39.04 38.80 38.04 37.22 36.09 33.67 36.59 36.52 36.52 36.79 37.67 38.10 38.44 39.21 40.76 42.06 41.45 39.89 37.82 36.41 35.59 34.56 33.25 32.49 31.73 30.42 29.31 29.15 28.88
28.39 29.49 29.57 28.95 28.55 28.64 32.24 32.14 31.98 30.89 32.07 32.18 32.56 34.19 34.68 34.12 30.42 31.31 34.92 35.12 34.55 34.13 33.01 33.83 34.58 35.30 35.35 35.20 34.09 33.05 32.06 31.50 29.50 28.65 29.16 29.57 29.84 32.90 37.88 38.98 38.37 37.58 35.96 34.89 33.81 33.32 32.31 31.34 30.68 29.98 29.39 28.60 27.75 26.94

GFSWCAN_sfc_wetblb_024.txt.gz
Wetbulb
47.38 47.36 47.03 46.65 46.55 46.88 47.03 47.19 47.27 47.64 47.21 47.73 48.22 48.45 48.94 50.32 50.61 50.61 48.69 50.68 44.55 39.34 40.68 42.72 41.92 39.21 39.15 38.88 35.31 38.77 38.76 39.92 38.15 33.47 33.92 33.55 33.50 36.68 35.08 36.13 34.65 34.27 32.64 32.51 33.77 35.57 35.22 47.47 47.58 44.70 45.85 50.29 51.01 51.72
48.06 48.09 47.97 47.60 47.47 47.00 46.74 46.93 47.25 47.50 47.59 47.78 47.95 48.27 48.68 49.60 50.43 49.84 46.60 50.91 49.26 41.45 41.76 46.70 46.29 46.31 44.92 44.72 40.08 39.73 38.75 37.79 38.50 36.12 37.41 35.25 33.67 36.96 36.16 33.06 40.20 36.24 38.31 37.31 37.84 37.19 42.64 48.04 46.42 49.79 50.07 49.46 50.85 51.24
48.90 48.58 48.12 47.98 47.83 47.46 47.21 47.11 47.02 47.40 47.65 47.91 47.64 48.33 48.31 48.45 49.62 49.34 48.37 48.40 46.53 41.44 42.36 45.50 44.60 46.90 47.96 46.35 47.21 35.93 39.88 42.12 41.39 43.72 38.52 37.44 33.30 34.78 33.11 34.51 34.94 38.25 40.74 38.63 38.90 40.74 40.71 43.59 47.42 49.07 49.61 49.45 51.10 52.72
48.72 48.77 48.57 48.25 48.16 47.91 47.46 47.51 47.31 47.23 47.62 47.92 48.19 48.48 48.27 48.29 49.06 49.20 48.07 49.51 46.09 42.67 36.53 43.61 49.71 47.60 48.57 46.93 45.41 43.87 40.89 42.60 42.69 42.37 39.92 38.74 36.84 39.75 36.59 36.58 37.34 39.89 40.61 39.06 39.88 41.52 42.13 43.86 44.61 46.93 47.72 49.09 50.21 52.86
48.58 48.60 48.56 48.63 48.06 47.89 47.98 47.61 47.64 47.29 47.44 47.61 48.08 48.54 48.28 48.10 48.18 48.90 50.00 50.91 49.31 42.98 38.84 41.48 47.28 48.63 49.36 47.10 46.23 45.49 42.91 41.07 40.65 40.18 39.30 39.28 41.25 40.62 42.17 39.57 37.13 39.41 38.03 37.07 37.69 42.38 41.17 41.83 45.30 46.73 47.21 47.14 48.54 51.27
48.15 48.47 48.60 48.74 48.56 48.07 47.95 47.47 47.79 47.85 47.75 47.52 47.92 47.70 48.10 48.53 48.68 49.29 46.11 50.53 50.57 45.81 39.40 36.00 47.79 46.42 48.79 49.37 47.57 46.96 46.53 43.63 42.96 43.86 41.84 43.81 44.89 42.04 37.91 37.75 39.65 42.96 44.04 43.70 41.56 45.63 46.31 46.59 47.59 47.55 46.04 47.60 49.09 51.17
48.12 48.15 48.40 48.39 48.54 48.58 47.82 47.71 47.87 48.17 47.70 47.77 47.97 47.89 48.40 49.82 49.56 47.70 46.07 48.58 48.03 46.61 40.66 37.95 42.80 47.97 48.56 49.02 50.72 48.32 47.17 48.13 46.26 45.50 43.52 43.73 42.16 43.56 39.18 35.40 40.19 42.36 42.93 44.12 46.91 46.79 45.41 47.58 46.10 47.44 47.61 49.55 50.30 52.65
47.99 48.08 48.13 48.33 48.38 48.33 48.13 47.71 47.54 47.88 47.44 47.59 47.48 47.28 50.00 49.24 48.50 48.14 50.83 47.91 48.46 45.78 44.39 36.77 41.59 43.82 48.66 43.93 44.89 48.92 45.16 46.53 45.89 43.57 44.35 42.47 42.62 42.68 37.27 39.81 40.19 41.91 41.36 43.57 44.78 46.17 46.92 48.07 48.64 48.79 49.26 49.46 49.05 50.21
47.72 48.01 47.94 48.13 48.24 48.26 48.06 47.70 47.35 47.55 47.37 47.29 47.26 48.91 50.29 49.26 48.89 48.80 48.87 48.73 49.67 45.28 39.13 41.19 36.58 35.48 48.46 43.52 43.56 46.41 46.89 40.01 46.74 41.10 39.76 41.06 38.84 36.35 37.52 38.26 39.38 40.92 41.18 42.40 43.92 45.71 47.02 46.35 47.17 48.41 49.24 49.37 48.88 49.63
47.42 47.83 47.72 47.86 48.02 48.15 47.61 47.52 47.37 47.48 47.33 46.78 48.24 48.11 46.27 48.56 47.49 49.23 45.76 43.34 42.63 43.93 42.91 38.93 43.89 38.23 43.76 42.88 41.24 41.51 45.45 42.93 39.35 41.58 43.34 38.89 39.06 42.11 41.33 41.43 42.52 43.29 44.14 44.76 43.18 42.27 44.71 45.56 46.96 47.88 48.51 49.49 49.61 50.43
46.65 47.41 47.52 47.48 47.68 48.05 47.82 47.61 46.97 46.90 46.88 46.86 43.46 43.44 45.96 47.91 47.81 46.27 42.05 40.75 42.82 39.75 43.01 43.59 44.35 40.60 45.78 39.31 37.57 42.07 40.52 43.70 37.88 40.16 39.47 39.63 37.49 41.59 44.76 45.40 46.10 46.25 45.67 45.81 45.89 46.73 47.02 47.34 46.15 48.04 49.15 49.95 50.43 50.98
44.79 46.44 47.06 47.27 47.40 47.48 47.63 47.49 47.08 46.69 45.95 43.43 42.53 43.92 43.25 42.81 44.26 40.43 40.54 42.45 40.88 39.62 44.10 43.64 44.66 44.92 44.85 45.58 39.65 42.35 37.71 41.43 34.71 44.06 39.37 35.42 40.83 44.59 45.58 45.81 47.18 47.26 46.54 45.41 46.23 46.31 48.21 49.09 49.51 49.25 50.26 50.74 51.31 51.82
44.73 45.86 46.78 47.03 47.15 47.22 47.22 47.09 46.15 45.93 45.72 46.03 41.21 38.73 40.54 43.19 35.18 35.77 33.40 38.26 39.14 43.06 44.59 45.15 42.51 45.90 43.86 44.63 41.76 40.26 32.91 36.63 42.86 39.51 37.36 41.36 44.12 45.54 46.31 46.41 46.62 48.34 48.51 48.19 46.13 46.71 47.29 48.25 49.60 50.30 50.34 51.38 52.87 52.42
44.92 46.25 46.83 47.15 47.13 47.33 46.63 45.18 45.84 46.02 44.17 40.74 37.69 34.42 38.55 37.02 39.38 41.13 41.02 43.00 45.79 45.11 45.35 45.61 44.41 43.65 43.86 40.35 41.94 32.12 40.39 40.70 35.39 33.12 35.55 42.88 44.94 46.27 47.33 47.38 46.58 46.74 47.70 48.04 48.02 47.97 48.11 47.12 46.80 49.07 49.59 49.92 50.67 52.19
44.30 45.98 46.44 46.63 45.67 44.73 45.67 45.77 45.48 46.05 43.81 38.54 39.75 33.87 38.42 43.30 45.45 45.60 46.28 45.88 46.44 48.48 46.47 44.74 44.07 43.61 42.02 38.82 40.43 37.77 34.72 32.94 35.26 36.46 42.95 45.71 46.83 47.14 47.22 47.45 47.43 47.14 47.72 47.83 48.43 47.49 46.43 47.36 48.31 48.97 49.64 49.20 49.37 50.65
43.32 44.56 46.48 44.82 44.23 45.55 45.67 46.49 47.32 45.96 42.36 39.51 40.83 40.10 43.68 42.08 42.17 43.73 44.31 44.20 48.03 47.29 47.70 45.98 41.80 39.13 38.35 39.52 33.80 33.38 32.26 30.77 35.12 41.54 45.96 47.65 46.69 47.49 47.73 47.90 48.15 48.11 48.44 48.02 48.67 48.36 48.65 47.14 47.31 48.67 48.46 47.37 47.43 47.24
42.52 42.92 44.87 44.95 45.49 45.63 45.84 44.64 45.07 40.02 39.65 40.05 40.85 44.97 43.40 43.59 42.65 43.54 45.03 44.96 48.64 45.24 40.99 43.31 36.05 35.47 41.81 37.31 35.58 37.09 33.67 37.29 44.17 45.98 48.73 47.90 47.65 47.56 47.82 48.21 48.04 48.26 48.09 48.43 48.68 48.91 48.16 49.86 49.43 49.15 46.79 47.26 48.09 49.43
41.27 45.23 45.39 46.00 45.67 44.45 45.34 43.95 42.73 40.92 37.80 42.08 41.17 43.94 45.13 45.71 44.65 45.06 46.20 47.25 45.82 44.44 43.71 40.24 44.20 37.90 35.53 34.29 37.86 39.76 43.64 46.01 47.51 47.13 47.18 49.05 48.80 48.49 48.34 47.94 48.28 48.19 48.27 48.60 49.26 49.08 49.13 48.60 48.42 48.65 49.73 49.31 47.75 47.57
42.47 44.09 44.87 45.84 44.99 40.99 37.44 40.82 42.95 37.53 39.57 43.54 45.28 46.23 45.51 45.12 46.78 47.48 47.11 47.58 47.90 48.14 46.62 43.42 39.08 37.96 39.34 42.51 42.41 43.32 45.00 45.72 44.81 47.12 48.55 49.24 49.39 48.77 48.45 48.40 48.03 48.12 48.27 48.41 48.86 48.28 48.90 48.19 47.99 50.02 49.31 49.32 48.17 47.34
42.79 44.22 44.75 43.25 43.56 38.08 37.42 40.08 44.45 39.84 37.90 43.74 45.37 44.11 44.58 44.74 46.15 46.51 46.67 46.35 45.36 44.37 41.11 39.42 40.14 42.47 43.41 45.24 46.48 45.99 46.42 49.15 47.90 45.64 46.21 47.87 49.33 48.87 48.48 49.03 49.89 48.86 48.68 48.32 48.30 44.05 48.54 48.19 48.29 47.21 48.78 47.70 46.64 44.87
41.83 44.04 42.67 43.74 40.82 38.46 37.04 40.31 39.79 40.30 41.27 40.39 43.51 44.49 43.72 45.77 43.70 43.61 43.85 46.25 42.96 41.54 40.07 42.87 43.60 45.49 47.56 47.95 48.36 48.77 48.15 48.73 47.32 47.15 47.44 46.71 49.13 49.65 49.31 49.62 49.64 49.83 48.13 47.81 47.09 46.81 45.95 47.29 46.69 48.20 48.47 47.81 47.70 46.73
40.28 41.84 41.26 41.79 37.63 37.79 36.77 41.58 40.36 41.66 39.32 40.52 41.14 42.81 40.80 40.35 41.11 42.62 45.14 42.01 41.27 43.59 45.13 45.03 45.76 46.50 46.15 46.27 47.89 49.61 49.35 49.44 50.20 48.57 40.52 43.44 46.94 48.01 48.66 49.44 48.94 47.74 47.84 48.31 47.48 46.96 47.44 48.25 47.38 49.08 48.60 48.29 46.83 46.61
41.30 41.14 38.75 38.15 34.43 34.34 34.26 42.17 37.33 39.18 36.18 38.58 40.85 38.14 39.55 40.32 43.08 44.71 40.05 42.24 44.17 47.12 47.10 46.40 46.80 47.85 47.14 47.86 48.39 49.34 50.18 49.73 48.71 48.71 48.59 48.57 49.56 49.76 50.04 49.83 50.21 47.61 46.88 47.75 48.95 48.17 47.90 40.76 45.83 47.31 48.11 48.11 47.65 45.46
41.32 37.48 32.46 31.51 33.14 31.62 36.92 35.48 37.79 37.48 39.32 38.15 37.25 35.83 38.42 40.96 43.96 40.24 37.28 40.52 44.43 47.37 46.32 45.88 46.31 45.77 46.85 47.39 46.48 47.31 49.16 50.00 49.30 49.31 49.80 48.75 47.85 48.24 48.92 49.47 49.92 50.21 49.22 49.06 49.03 48.60 48.38 47.73 42.02 47.15 46.82 45.58 44.91 43.85
32.01 31.79 31.65 28.21 33.29 32.20 31.41 32.34 33.73 35.02 33.80 36.26 35.40 36.43 38.55 42.57 37.37 36.63 36.13 40.86 44.27 44.24 44.88 45.76 45.75 46.02 45.26 46.20 47.35 48.32 50.36 49.79 48.38 47.61 48.30 48.83 48.80 47.37 46.65 48.34 48.60 49.61 49.90 48.73 48.07 47.13 46.76 46.78 46.28 45.66 45.17 43.01 40.72 41.13
27.74 31.73 29.35 29.92 30.74 30.69 32.97 30.59 32.44 33.82 35.13 34.40 35.34 38.68 41.79 37.63 34.04 33.79 38.30 42.76 43.58 43.94 43.98 44.37 44.63 44.81 44.94 46.05 45.57 46.81 48.37 50.27 49.74 47.84 48.33 48.48 47.33 46.68 45.67 44.89 45.18 46.01 50.69 50.40 49.05 46.08 45.15 45.13 44.38 43.40 42.80 40.99 36.33 39.54
24.66 27.55 33.12 37.68 35.84 34.39 32.65 35.22 36.87 35.30 33.06 32.62 35.43 35.88 35.44 31.34 32.30 38.41 42.03 44.52 44.82 45.24 45.74 45.82 45.18 45.14 45.33 46.16 48.41 49.49 50.38 50.69 49.57 48.71 49.42 48.99 48.75 49.06 47.83 45.55 44.20 46.94 49.59 48.43 47.89 46.41 45.02 44.35 43.58 42.39 42.13 41.14 38.96 38.39
29.36 32.03 28.33 32.68 33.16 34.50 30.42 31.84 32.07 31.41 33.86 38.08 38.14 33.30 32.17 32.97 35.84 42.65 44.44 46.12 45.82 45.64 45.51 45.98 46.32 46.50 46.86 47.88 49.32 49.68 49.49 49.47 49.60 49.41 48.67 48.19 48.30 48.37 48.19 48.59 48.70 33.51 47.63 47.52 47.31 46.89 45.60 44.60 43.29 41.87 40.87 40.03 39.59 38.45
28.79 32.93 33.40 29.72 30.94 32.04 31.93 31.17 32.01 35.30 38.13 37.42 34.02 33.40 34.82 39.09 42.72 43.44 44.77 45.45 45.39 44.55 43.14 42.99 43.99 46.47 47.25 48.93 49.86 49.66 49.23 48.10 45.94 43.65 42.97 42.85 43.40 44.69 47.87 48.00 47.24 47.62 46.59 43.57 30.02 36.64 41.57 42.22 41.90 41.66 40.45 40.59 40.04 39.28
29.82 33.76 29.84 29.66 27.88 27.52 32.74 35.08 34.61 37.90 38.28 38.02 38.96 38.73 38.35 40.16 43.44 45.13 43.94 43.45 42.51 42.12 43.06 43.98 44.63 44.39 44.11 44.80 45.30 45.96 48.39 48.78 48.06 45.68 43.19 43.07 44.56 46.77 46.93 47.10 46.85 46.82 46.27 45.09 43.25 40.12 30.48 38.75 36.60 41.79 40.17 39.68 38.75 36.99
33.11 32.73 29.59 29.25 28.87 33.21 35.55 36.98 37.71 38.36 38.46 37.62 38.52 36.48 36.43 38.07 39.43 37.97 36.32 37.84 40.76 40.65 39.99 39.71 42.56 45.39 44.79 44.12 44.28 44.01 43.38 46.25 46.67 45.96 45.45 47.16 46.60 46.05 46.01 46.30 46.97 46.97 46.17 45.16 44.02 42.81 41.38 40.93 39.99 38.21 36.96 35.88 35.10 35.15
32.00 30.21 29.30 26.79 29.30 34.72 36.65 35.18 34.75 34.15 35.47 34.99 35.20 36.60 36.55 35.16 35.36 33.65 34.22 34.59 35.35 35.56 34.39 34.96 36.53 37.63 39.95 40.86 41.10 41.93 35.97 43.31 42.51 42.27 43.01 44.06 44.19 44.32 44.76 45.43 45.29 45.55 44.65 43.55 42.37 41.05 39.88 38.64 37.55 36.29 34.97 33.75 33.89 33.42
30.51 30.80 31.05 30.01 30.05 30.02 33.31 33.09 32.34 32.69 34.29 34.31 34.70 35.73 35.42 34.84 28.36 31.81 35.51 35.12 33.48 32.85 32.19 33.57 35.35 36.93 37.50 36.54 36.11 35.84 35.31 36.93 32.60 30.56 31.51 31.64 32.39 36.80 42.81 42.64 42.66 42.98 41.25 40.80 40.03 39.01 37.50 36.42 35.55 34.58 33.87 32.90 31.73 31.04

GFSWCAN_sfc_wetblb_030.txt.gz
Wetbulb
49.85 49.78 49.59 49.23 49.26 49.56 49.81 49.15 48.98 49.23 49.04 49.44 49.67 49.15 48.80 48.99 49.62 48.36 47.58 51.93 47.48 42.41 43.96 45.99 46.49 42.97 43.72 41.72 36.32 39.23 37.69 40.80 40.76 36.14 35.22 34.07 33.85 35.78 35.70 36.71 35.91 36.83 34.90 35.57 37.38 33.55 30.37 43.65 45.82 42.00 46.04 49.98 51.40 53.22
49.82 49.71 49.75 49.73 49.01 48.69 49.70 49.81 49.16 49.16 48.92 49.48 49.64 49.77 49.20 48.97 49.33 49.09 44.57 51.77 53.13 45.28 44.01 48.84 48.79 50.39 49.09 47.37 41.37 39.83 37.84 38.67 39.90 36.46 38.59 37.71 35.00 36.14 35.33 31.95 40.46 35.23 37.11 34.61 37.73 35.67 42.32 44.73 44.69 47.54 49.12 49.78 50.90 52.39
49.67 49.91 49.58 49.31 49.18 49.22 49.16 49.65 49.54 49.57 49.19 48.88 49.40 49.84 49.91 49.40 49.37 48.40 45.46 48.69 48.14 43.59 45.78 47.77 46.55 51.36 52.70 50.83 51.20 40.10 39.91 41.58 40.96 44.23 39.44 39.37 33.91 38.22 33.55 34.82 35.53 38.80 41.45 37.98 38.25 40.16 42.00 44.03 46.79 48.49 49.96 49.74 51.98 53.24
49.54 49.48 49.30 49.23 49.23 49.21 49.08 49.44 49.38 49.57 49.01 48.83 49.22 49.80 49.59 49.46 49.06 48.10 45.57 50.30 48.04 44.12 39.35 45.35 53.31 48.86 53.54 52.62 50.88 49.06 45.75 44.59 43.52 42.83 39.87 40.00 38.02 43.84 36.64 38.27 38.44 39.80 41.78 39.00 38.06 41.50 43.39 44.35 46.36 47.76 49.17 51.07 51.84 53.66
48.77 48.95 49.18 49.19 49.16 49.15 49.10 49.24 49.26 49.38 49.38 48.95 49.48 49.86 49.83 49.11 48.55 48.88 48.99 51.14 50.90 44.83 40.28 42.75 48.79 52.39 53.05 52.02 49.61 48.74 46.86 42.98 40.72 41.04 40.49 40.45 44.14 42.99 43.90 39.79 38.39 41.93 40.74 38.00 36.77 42.80 43.01 43.36 47.02 49.57 49.50 50.20 51.77 52.38
48.41 48.41 48.44 48.49 48.55 48.75 48.73 48.88 49.13 49.32 49.65 49.28 49.14 49.53 49.53 48.95 48.67 49.10 45.37 52.56 53.23 49.24 42.53 39.41 49.66 50.08 51.13 51.43 49.81 47.92 47.93 43.81 43.89 42.41 42.71 46.17 48.17 44.27 38.82 35.73 41.00 42.97 44.60 44.82 41.93 46.17 46.44 47.35 48.47 48.65 48.65 50.20 52.45 52.42
47.46 47.57 47.66 47.69 48.00 48.07 48.38 48.88 49.13 49.35 49.60 49.47 48.72 49.19 48.68 48.57 48.91 48.43 46.24 47.84 51.51 52.30 42.81 39.77 43.37 49.77 50.75 50.70 49.74 48.71 49.80 47.64 46.63 45.31 45.50 45.55 45.98 46.57 41.60 35.46 41.38 43.32 44.32 44.91 46.55 46.03 45.19 46.41 45.33 48.76 50.14 51.24 52.67 53.83
46.38 46.28 46.53 46.97 47.41 47.39 47.83 48.51 48.83 49.14 49.18 49.05 49.05 48.97 48.60 49.50 49.33 48.72 52.22 49.48 51.91 49.06 46.25 38.53 41.08 44.73 51.55 46.51 44.64 49.89 45.51 47.35 47.42 45.99 46.34 44.34 45.48 43.73 38.34 41.75 43.91 43.32 43.55 44.91 45.89 47.38 47.49 48.38 49.28 49.47 50.35 51.08 50.74 51.58
44.78 44.76 45.36 45.48 45.91 46.09 47.18 48.25 48.73 48.82 48.88 48.66 48.68 48.59 49.46 49.33 48.52 48.49 49.59 49.29 52.52 48.92 41.45 40.49 39.52 38.08 49.64 46.49 47.39 47.16 48.05 42.53 48.30 44.11 44.71 45.01 40.85 38.21 41.15 42.74 42.94 45.08 43.48 43.18 45.50 47.21 47.09 47.22 48.32 48.55 49.07 49.62 49.55 50.60
44.18 44.57 44.45 44.91 44.58 45.96 47.11 47.76 48.43 48.74 48.50 48.22 48.72 48.54 46.33 47.41 49.68 49.96 47.49 44.90 43.08 44.08 44.14 41.09 45.41 43.59 46.84 45.52 44.18 43.59 45.95 43.20 39.62 43.85 46.41 43.03 40.99 45.08 45.88 46.50 46.82 45.65 45.17 45.92 43.75 43.82 45.88 46.07 47.43 48.22 48.72 50.41 50.59 51.19
43.13 43.60 44.09 44.72 45.71 46.49 46.97 47.76 48.33 48.13 48.17 49.91 46.50 45.30 49.48 49.81 49.18 47.45 42.34 40.37 41.63 39.60 43.12 45.14 45.52 43.55 48.93 43.20 42.14 44.62 41.86 43.04 38.23 41.55 40.82 40.15 38.81 43.17 46.25 46.54 47.56 48.66 48.18 47.43 46.40 46.99 48.36 48.28 47.55 48.21 48.87 50.49 51.52 52.09
43.00 43.22 43.43 43.92 44.79 45.50 46.65 47.51 47.89 47.25 47.04 44.59 44.24 46.34 47.78 44.66 43.16 39.65 39.50 43.07 41.78 40.75 45.38 44.73 44.34 47.30 47.87 48.05 43.08 43.37 39.57 41.90 36.47 45.46 41.43 37.07 41.93 45.98 46.19 46.45 47.52 48.44 48.15 48.42 48.28 46.99 48.17 48.11 48.44 49.20 48.88 48.87 50.06 52.09
42.62 42.92 43.09 43.51 43.99 44.74 45.29 46.55 46.35 46.81 46.91 46.19 42.45 39.70 40.00 41.77 36.29 36.56 35.06 39.94 40.73 45.07 46.01 46.29 43.63 47.26 47.37 46.27 41.70 40.96 36.52 37.27 45.04 40.03 38.15 41.11 45.13 46.00 46.47 47.42 47.77 48.83 48.53 48.76 48.39 48.82 47.94 48.34 47.65 47.43 47.45 48.85 49.74 50.36
41.94 42.67 43.11 43.34 43.84 45.62 46.37 46.19 46.55 46.86 45.67 42.11 39.55 34.24 37.64 37.68 40.83 41.95 42.89 43.77 46.85 47.20 45.47 45.73 44.93 44.43 46.43 43.08 42.64 36.62 40.55 42.27 35.80 34.48 34.95 43.73 44.92 46.89 47.60 48.09 47.50 47.66 48.23 47.97 48.34 49.32 48.32 48.55 47.89 48.73 48.62 48.39 47.85 47.50
42.01 42.58 43.34 43.61 45.39 45.60 45.67 46.37 46.64 46.76 44.93 42.22 42.34 35.24 39.45 44.55 46.71 47.62 48.24 47.44 48.23 48.49 46.49 44.94 45.46 45.40 43.05 40.80 41.83 39.63 35.58 34.36 36.68 37.18 42.95 47.26 47.97 48.11 47.91 47.71 47.73 47.69 48.01 48.13 48.77 48.39 48.53 48.65 48.48 49.09 48.88 49.00 48.42 47.63
41.97 42.82 44.62 45.58 45.41 45.02 44.97 46.11 47.39 46.46 43.80 43.09 42.72 41.72 45.66 45.14 45.73 46.72 46.77 46.12 49.25 47.89 48.34 46.26 42.27 39.99 39.96 41.19 37.85 36.04 34.90 33.41 37.73 45.60 46.15 48.82 48.22 48.63 48.59 48.35 48.48 48.41 48.34 48.69 49.03 49.03 48.66 48.28 48.50 48.36 48.73 48.95 48.24 47.89
41.02 41.81 45.19 44.43 43.97 44.00 45.55 44.85 45.84 42.66 41.85 40.15 41.34 45.97 45.00 44.89 44.76 46.71 48.29 47.90 50.50 47.01 43.07 43.07 38.40 38.30 43.00 39.04 37.55 41.88 37.19 41.92 45.77 46.49 48.18 49.00 48.43 48.56 49.32 48.75 48.52 48.80 48.49 48.75 49.17 49.31 49.44 49.12 50.20 49.24 47.56 48.57 49.09 49.16
40.45 43.44 43.36 42.80 42.87 43.40 45.32 44.64 43.52 42.09 37.27 40.84 39.46 42.38 45.01 46.52 46.59 48.13 49.42 50.37 48.72 46.41 45.25 42.21 44.70 39.82 38.17 35.79 38.33 43.66 46.29 46.84 47.32 47.97 48.35 48.91 49.47 49.09 49.10 49.33 48.57 48.75 48.74 49.70 49.29 49.63 50.11 48.85 48.22 47.28 47.74 48.67 48.45 48.81
41.17 41.73 41.48 41.85 42.27 40.98 39.63 41.72 43.13 37.70 40.24 43.46 45.08 46.40 46.83 47.29 49.15 49.84 50.24 50.76 50.73 50.03 47.05 44.55 41.01 39.45 40.77 44.10 44.00 45.58 46.06 47.18 46.30 46.76 47.85 50.08 50.08 49.20 49.38 49.17 48.86 48.60 49.53 50.17 49.65 48.48 49.79 49.67 48.78 48.73 48.44 47.73 47.29 47.50
42.20 42.57 42.17 42.26 42.95 40.02 37.12 39.97 45.65 40.13 38.58 43.33 45.00 44.74 45.92 46.30 48.34 49.02 49.58 49.52 48.35 46.87 43.35 42.06 41.95 44.07 45.03 47.05 48.08 47.69 48.87 49.27 48.42 46.63 47.01 48.79 49.59 49.87 49.56 49.08 49.26 49.72 49.03 49.50 49.38 45.05 49.38 48.77 48.81 49.86 49.16 47.21 46.84 46.32
41.71 42.12 43.61 43.77 42.01 40.77 39.87 39.86 39.80 42.15 42.25 41.07 43.81 44.19 44.09 46.32 45.34 46.21 47.10 49.20 46.35 44.55 42.77 45.35 47.00 48.46 49.90 49.79 50.02 50.92 49.23 49.88 47.90 47.63 47.57 47.43 48.25 49.96 47.61 49.89 49.89 49.30 48.20 48.07 48.21 47.16 47.14 47.98 47.77 49.74 49.37 48.66 48.23 47.06
41.40 43.24 41.04 42.54 37.93 38.69 38.38 40.83 39.45 41.97 40.35 40.61 41.47 42.41 41.28 40.53 41.49 43.63 46.69 44.96 44.70 45.95 47.59 47.46 47.97 48.18 48.58 48.96 49.44 51.36 50.61 50.59 50.29 48.83 45.36 45.46 48.34 48.45 48.50 49.40 48.84 48.46 48.23 48.34 48.00 47.54 48.40 48.59 48.36 48.53 47.59 48.09 46.61 45.78
41.96 41.37 38.12 37.45 34.40 34.31 33.59 41.56 36.05 38.14 35.62 37.91 41.05 38.98 40.25 42.04 43.76 46.93 43.15 44.94 45.62 48.40 48.71 49.19 49.72 50.68 49.56 50.34 50.69 50.38 50.41 50.18 48.22 48.89 49.07 48.77 49.65 49.31 50.00 49.60 49.91 48.71 47.19 47.56 49.43 48.27 48.50 40.90 46.49 47.36 47.64 47.54 46.70 46.33
41.96 36.88 35.72 33.64 33.97 30.81 36.66 35.31 38.69 36.94 37.80 36.73 35.84 35.17 38.01 40.28 43.64 41.78 39.48 43.32 46.03 48.01 47.84 48.58 48.53 47.70 49.08 49.39 48.22 48.54 49.47 50.45 49.01 49.10 49.66 48.49 48.62 48.43 50.13 49.39 48.31 49.39 49.28 48.70 48.68 48.70 48.88 47.77 42.72 46.78 46.98 45.72 45.56 44.74
30.76 32.04 33.63 30.14 34.85 31.08 30.41 32.07 33.59 34.81 32.58 35.41 34.79 35.39 37.59 41.23 38.49 37.84 38.66 41.99 44.85 45.59 47.21 49.20 48.44 47.05 46.22 46.81 48.08 48.78 51.08 49.56 48.53 48.27 49.66 49.61 49.47 48.28 49.36 48.67 49.14 49.09 49.40 47.99 47.37 47.28 47.31 47.32 46.97 46.46 45.84 44.36 43.67 43.43
26.15 30.76 30.73 31.09 31.55 30.13 30.99 29.26 30.99 32.30 33.90 33.56 35.37 38.17 39.90 37.44 34.60 34.37 39.32 42.68 44.99 46.49 47.54 46.63 45.74 46.30 46.80 47.38 46.55 47.67 49.39 50.91 50.34 48.65 49.18 50.21 49.36 47.86 47.54 45.65 45.85 46.84 49.20 48.56 47.52 46.80 46.15 46.01 45.16 44.84 42.74 41.33 35.82 42.14
24.31 26.52 32.41 37.27 35.54 34.71 32.62 34.61 35.43 33.59 31.95 31.61 35.30 36.29 35.92 31.81 33.05 38.90 43.43 41.48 42.66 47.20 49.16 47.83 48.00 47.53 46.61 46.77 48.02 49.09 49.62 50.29 50.45 49.36 50.51 51.14 50.89 50.34 49.42 47.42 46.16 48.08 49.50 48.35 47.59 47.09 46.31 45.65 45.10 45.12 44.99 44.76 43.57 42.05
30.08 31.11 27.32 31.52 32.02 34.07 30.01 30.75 30.66 30.14 31.92 36.37 36.80 32.83 33.40 33.11 33.02 38.30 41.86 42.74 43.12 45.06 45.36 47.81 48.61 47.72 47.05 47.20 48.25 48.54 49.09 49.89 50.51 50.53 50.88 50.42 50.68 50.30 50.65 49.52 48.50 36.25 48.08 48.68 47.84 47.54 46.72 46.17 45.78 45.02 44.30 43.63 42.84 42.58
30.20 33.12 32.19 28.65 30.69 31.63 31.56 30.97 31.72 34.80 37.52 36.32 33.19 32.18 33.63 37.82 40.24 41.69 43.37 44.68 45.05 44.44 42.20 42.98 45.20 46.97 46.72 47.04 47.59 47.96 47.92 48.91 46.82 45.13 45.42 44.59 44.27 46.67 48.32 48.48 47.80 48.32 48.42 45.13 31.39 39.39 44.38 45.08 45.33 44.90 44.26 43.82 43.43 42.46
30.66 34.16 29.99 30.38 28.72 28.20 32.01 35.66 34.94 37.98 39.19 38.94 39.01 38.71 38.98 40.15 40.77 41.42 41.44 42.41 41.95 41.64 43.34 44.04 44.72 44.64 43.95 44.68 45.04 46.13 48.55 46.98 47.34 45.78 43.69 45.03 44.92 47.75 47.74 48.12 47.63 47.28 48.12 46.64 44.96 42.18 31.93 40.37 38.34 43.33 42.92 43.02 42.07 41.09
34.56 33.60 31.72 31.89 30.52 34.13 36.09 37.87 38.92 38.62 38.55 37.88 38.91 37.37 36.84 37.86 38.29 37.04 35.77 37.44 39.14 39.31 39.03 38.47 37.86 37.88 38.76 37.94 40.10 42.10 41.93 41.23 42.65 42.20 41.85 46.11 47.03 47.81 48.66 48.88 48.54 47.73 48.02 46.89 45.81 44.28 42.75 42.39 43.77 42.53 41.44 39.91 39.10 38.69
33.57 32.34 31.19 29.85 32.02 36.42 37.43 35.75 35.97 35.36 36.00 36.25 36.49 38.33 38.21 37.34 32.26 32.82 34.78 34.74 33.63 33.00 32.68 34.23 34.62 34.44 36.56 36.45 38.58 39.98 35.37 38.16 39.07 38.48 39.32 41.65 43.59 46.12 48.71 48.14 47.19 46.78 46.34 46.62 46.07 45.04 44.06 42.75 41.95 40.87 39.83 38.78 38.04 37.28
33.28 33.67 33.67 32.66 32.37 32.34 35.13 34.20 33.60 33.17 34.70 34.95 35.31 35.92 33.41 32.35 28.08 32.37 36.28 36.38 34.93 33.40 33.97 35.03 35.84 36.83 36.42 36.29 37.24 38.19 36.94 38.07 35.15 32.59 32.51 32.48 33.02 35.78 44.26 45.96 45.90 46.05 45.51 44.89 44.28 43.58 42.54 41.30 40.57 39.64 38.30 37.25 35.97 34.71

GFSWCAN_sfc_wetblb_033.txt.gz
Wetbulb
49.76 49.82 50.10 50.13 50.15 50.05 49.67 49.61 49.82 49.68 49.26 49.54 49.92 49.94 50.20 50.30 49.26 47.25 44.51 46.33 43.47 41.78 42.02 43.85 44.02 41.02 40.62 40.23 36.87 38.37 35.85 36.33 34.63 30.52 31.17 31.91 30.39 33.64 33.67 35.98 35.90 33.74 33.00 32.62 34.03 32.46 28.91 41.71 42.65 39.16 43.57 47.62 49.52 49.81
49.65 49.76 49.79 49.98 49.98 49.67 49.45 49.58 49.66 48.74 49.84 49.39 49.68 49.80 50.04 50.43 50.40 49.11 42.93 46.61 51.25 44.91 42.65 46.98 47.26 47.32 45.99 44.55 40.76 39.65 37.00 37.36 37.04 34.77 34.09 35.45 32.88 33.27 33.36 29.84 37.81 33.42 35.59 33.08 33.74 33.73 41.84 44.09 43.63 46.42 47.40 47.04 48.38 49.49
49.69 49.90 49.79 49.59 49.46 49.51 49.44 49.51 48.54 48.41 49.69 49.46 49.48 49.80 50.17 50.53 49.67 48.49 44.82 44.80 44.97 43.50 42.44 43.09 44.02 49.25 50.39 48.49 47.97 37.85 39.81 40.88 39.39 41.63 37.96 37.68 33.30 36.67 31.43 32.62 35.48 38.40 41.40 36.92 37.38 40.10 40.94 43.44 45.02 46.04 47.19 48.05 49.70 50.95
49.12 49.20 49.37 49.26 49.12 49.01 49.04 49.01 48.54 48.14 48.28 49.40 49.60 49.53 49.83 50.20 50.17 48.65 43.65 45.10 45.51 44.09 37.50 40.32 49.68 46.62 52.25 50.18 47.94 47.19 43.10 44.17 42.23 41.07 37.92 37.19 35.17 40.89 36.49 37.27 37.16 39.27 40.51 38.14 37.95 40.67 42.62 44.01 44.88 46.38 47.81 48.65 50.24 50.50
48.37 48.09 47.26 47.67 48.32 48.26 48.40 48.58 48.47 47.55 48.63 49.26 49.53 49.07 49.41 49.44 49.43 47.88 46.74 46.61 47.00 44.07 38.04 39.70 44.84 49.46 49.41 49.06 47.79 46.62 45.15 42.11 40.17 38.79 39.05 37.50 41.77 39.59 40.93 39.01 36.70 40.04 38.30 35.55 35.53 41.13 41.00 41.87 46.31 47.64 46.39 47.15 49.26 49.75
47.10 46.81 46.65 47.21 47.31 47.45 47.68 47.94 47.96 48.29 48.91 49.02 49.54 48.87 48.94 48.64 49.02 45.13 44.43 48.26 48.65 48.96 41.52 35.96 44.66 45.22 49.46 49.61 48.07 46.40 46.03 43.09 41.14 40.84 40.91 41.94 43.96 39.71 36.19 34.52 39.72 40.95 43.09 42.09 40.06 43.81 44.19 45.68 46.87 47.57 46.23 47.69 49.36 50.51
45.42 45.91 46.14 46.07 46.15 46.59 47.15 46.90 47.33 48.16 49.01 49.08 49.28 49.44 49.48 49.13 47.03 43.76 44.46 47.53 49.84 49.73 42.08 37.55 38.73 47.72 49.51 48.66 47.90 46.65 47.12 44.95 44.17 43.97 40.96 41.09 41.16 42.87 36.32 34.02 40.58 42.01 42.82 43.20 45.04 44.17 42.55 45.49 43.60 46.95 47.90 48.73 49.20 51.54
44.82 44.87 45.06 45.15 45.42 45.06 45.21 45.33 46.92 48.01 48.30 48.63 48.99 49.06 49.02 48.43 47.83 45.86 49.27 50.66 50.01 47.76 44.83 36.55 36.90 40.88 49.43 43.65 42.29 47.42 43.49 44.84 43.92 42.19 42.84 40.88 41.17 39.75 33.73 38.67 40.63 44.14 43.63 43.44 44.66 45.51 45.72 46.82 47.38 48.03 48.85 48.71 48.00 49.32
44.05 44.14 44.21 44.70 44.75 45.49 45.86 46.36 46.98 47.64 48.23 48.46 48.53 48.84 47.91 46.58 47.41 47.96 50.95 50.67 49.55 46.90 39.68 39.52 35.00 34.93 48.19 43.69 44.35 42.92 44.63 38.47 45.24 41.84 41.68 40.22 37.12 32.61 37.95 39.52 40.88 41.34 41.30 42.95 45.26 46.33 46.99 47.21 47.62 48.39 48.03 48.82 49.07 49.90
43.32 43.61 43.71 44.10 44.32 45.22 45.93 46.65 47.24 47.98 48.15 48.29 47.82 46.37 44.47 46.07 50.51 50.51 46.85 44.36 43.61 43.16 43.32 37.71 41.83 38.30 43.40 43.07 40.72 39.90 42.23 38.96 36.34 41.24 43.31 38.56 37.50 42.01 43.68 43.75 44.00 44.16 44.00 43.95 41.94 42.40 44.65 45.38 46.44 47.19 47.39 48.86 49.64 50.41
42.85 43.15 43.14 43.59 43.73 43.88 44.60 45.81 46.35 47.53 48.19 47.48 44.10 43.19 45.77 50.56 46.60 45.79 41.26 39.04 40.43 38.00 40.96 40.65 40.96 38.60 46.88 40.90 38.50 40.50 37.70 39.29 34.37 37.93 38.68 36.29 35.63 39.80 43.69 44.87 45.71 45.84 46.16 45.38 44.33 44.87 46.30 45.85 46.36 47.24 47.34 48.54 48.99 49.19
42.23 42.38 42.47 42.81 43.14 43.88 44.22 44.79 45.84 45.42 44.04 43.35 42.54 44.64 45.43 43.47 41.78 38.66 37.93 40.94 39.89 38.25 42.61 41.70 43.05 44.72 44.33 44.88 39.07 39.21 36.48 38.59 34.10 42.82 38.25 34.14 40.17 43.11 43.87 45.26 45.54 45.75 46.03 45.36 45.80 45.73 47.06 46.41 46.90 47.01 46.93 46.83 47.25 48.00
41.74 42.00 42.58 42.92 43.37 44.36 44.94 46.51 46.68 46.93 46.76 46.18 41.92 39.43 38.05 39.40 34.19 33.61 32.33 37.67 39.32 44.13 45.21 44.99 42.06 44.12 43.90 43.24 39.30 37.34 33.89 33.15 41.30 35.36 34.77 38.18 42.97 43.72 44.09 46.37 46.35 45.85 45.58 47.28 46.84 46.83 48.46 47.98 47.77 47.21 46.66 47.49 47.62 47.04
41.37 41.95 42.53 42.95 43.52 44.98 46.06 46.34 46.47 45.98 43.90 41.00 39.09 33.42 34.61 33.60 37.35 38.15 39.02 41.67 45.78 45.94 44.71 43.92 42.80 42.06 42.70 40.21 40.08 33.62 37.56 37.68 31.99 29.90 32.28 40.17 43.11 45.32 46.59 46.57 45.28 45.21 45.82 45.77 47.93 47.10 47.93 47.78 46.99 47.25 46.30 46.27 45.70 44.94
41.27 41.75 42.40 44.44 45.44 45.13 44.97 45.39 45.30 45.42 42.38 39.65 40.61 34.30 36.66 40.91 43.38 44.84 46.03 45.41 46.85 46.83 44.21 42.48 42.61 42.90 39.91 38.92 39.92 36.96 32.75 30.46 31.03 30.16 37.56 42.23 44.39 45.40 45.33 46.20 45.87 45.04 45.07 44.97 47.12 45.39 45.57 47.08 47.03 47.01 47.41 46.52 45.95 45.18
41.46 41.72 43.58 43.92 43.06 43.12 44.12 44.61 44.80 44.61 42.83 40.70 39.89 37.90 41.78 41.27 42.25 44.54 45.70 45.08 48.17 46.70 46.66 44.35 40.83 38.44 38.15 38.20 35.15 33.64 31.49 27.20 32.67 38.88 42.84 45.06 44.68 46.20 45.43 46.68 46.37 46.26 45.88 45.05 47.39 47.00 46.31 46.86 46.56 47.08 47.74 47.65 45.62 44.95
40.82 40.10 44.55 43.28 43.02 43.35 43.90 42.54 43.41 40.45 39.04 38.88 37.86 42.44 41.71 41.38 40.97 42.80 44.60 46.29 47.42 45.60 40.94 42.32 38.00 36.93 40.36 36.28 34.43 36.17 33.12 35.27 41.93 43.04 45.18 46.43 45.27 47.23 46.41 46.80 48.08 46.81 46.61 45.62 46.69 47.23 47.30 47.40 46.70 46.51 43.93 44.71 46.35 45.25
38.51 41.82 43.21 42.91 42.33 41.79 43.61 43.77 41.16 40.92 36.47 38.42 35.89 38.01 40.49 41.88 41.05 42.73 45.23 47.65 47.52 45.55 44.70 40.83 43.16 37.84 34.79 33.79 35.06 38.45 41.94 44.54 45.41 44.37 45.42 46.82 46.94 47.41 47.68 45.83 48.85 47.49 45.94 45.98 46.24 47.65 46.50 46.06 45.10 43.54 43.85 45.47 44.47 43.84
40.36 41.83 42.22 43.28 42.71 38.29 37.14 40.06 41.73 35.09 37.50 40.09 41.06 42.31 42.96 43.56 45.62 46.55 46.55 48.11 48.06 48.83 45.45 43.37 39.67 37.11 37.25 41.58 41.79 43.65 44.02 44.69 43.58 45.17 44.90 46.12 48.18 46.38 47.54 48.16 48.07 46.75 45.95 46.52 46.12 46.54 45.71 45.65 44.83 44.92 43.83 43.04 42.60 42.22
41.95 42.69 43.01 43.80 42.66 38.36 34.88 36.60 44.30 39.57 36.14 39.92 40.67 39.57 40.99 42.14 44.95 45.45 45.64 47.32 45.77 45.40 43.02 40.73 40.39 41.90 42.26 44.03 45.14 44.62 45.08 46.35 45.53 44.78 44.31 45.27 48.05 47.90 47.08 46.17 45.70 45.75 45.89 46.90 45.92 45.54 46.34 46.15 46.73 45.30 44.46 42.53 41.91 40.93
40.80 42.25 43.24 43.28 41.32 39.62 37.09 36.80 37.15 39.89 40.62 38.63 40.85 40.65 40.48 43.35 42.38 42.15 42.22 45.01 44.25 43.13 41.56 43.97 44.44 46.05 47.72 47.54 48.11 47.53 47.55 46.67 44.55 45.35 44.82 44.80 47.94 48.39 47.00 47.31 47.70 46.81 45.89 44.77 45.53 44.68 43.74 42.79 45.23 45.65 44.96 43.37 42.83 42.65
38.95 41.97 39.70 40.83 36.07 37.40 36.99 39.19 37.00 39.49 37.08 37.28 36.97 37.35 35.93 35.60 37.32 39.16 42.11 39.38 39.84 43.45 44.75 45.64 46.88 47.30 47.12 47.29 47.54 48.53 49.28 48.62 48.05 46.12 44.18 44.26 46.01 45.60 45.57 46.32 45.11 45.14 45.00 44.76 44.69 45.33 44.19 43.45 44.27 46.14 44.38 43.53 42.34 41.63
41.25 40.39 38.11 36.94 32.16 33.20 31.66 39.30 33.74 35.70 32.34 35.23 37.63 35.19 36.07 36.62 39.86 43.73 39.74 41.93 42.27 45.29 46.17 47.23 48.23 49.18 48.31 48.86 49.85 49.31 49.22 48.69 46.91 46.44 46.27 46.56 47.51 48.11 47.87 47.21 46.77 45.03 44.04 44.59 46.11 45.46 44.33 40.95 40.95 45.33 44.41 43.66 43.16 41.68
41.70 35.69 32.11 31.15 31.73 28.86 35.60 32.73 36.31 34.88 35.24 33.20 32.80 32.17 34.61 36.77 40.45 37.65 35.80 38.75 42.59 45.81 45.98 46.75 48.21 46.31 47.35 47.89 46.56 46.85 47.69 48.14 46.86 47.07 48.01 46.13 45.71 46.28 47.02 47.67 47.45 47.30 47.45 45.91 45.60 45.83 45.57 44.34 42.20 43.79 43.28 42.91 41.97 40.92
29.10 29.24 31.41 27.19 33.67 30.61 28.84 29.67 30.90 31.22 29.22 31.74 31.20 31.85 33.68 37.72 33.08 33.86 34.63 38.41 42.13 43.67 45.79 46.80 46.25 46.52 45.05 45.62 46.47 47.10 49.05 47.54 46.23 44.67 47.71 47.24 47.01 47.30 47.64 47.53 46.77 46.59 47.13 46.78 45.08 45.05 44.62 44.45 44.25 43.21 42.23 40.99 40.59 39.90
24.92 29.30 28.73 29.49 30.26 29.05 29.30 26.93 28.57 29.20 31.35 30.49 31.86 35.47 36.91 34.09 32.02 31.54 36.53 38.20 40.05 40.23 41.65 42.27 42.01 44.64 44.84 45.55 45.20 45.29 46.30 48.31 48.87 46.41 47.04 48.52 47.50 46.19 45.40 45.18 43.71 43.95 47.44 46.38 45.83 44.90 44.19 43.74 43.21 41.89 39.71 38.31 35.84 39.85
23.26 25.49 30.47 34.55 32.11 31.93 29.73 31.22 32.24 30.02 28.37 28.08 30.93 31.92 32.77 29.83 30.64 34.18 39.63 39.78 38.66 39.71 42.59 43.90 43.54 41.78 44.54 44.80 46.41 46.70 47.49 48.12 47.74 48.00 48.34 48.67 49.48 49.20 48.38 45.91 44.76 45.54 46.47 46.53 46.54 46.10 44.41 43.50 43.04 42.35 41.79 41.15 40.09 39.22
29.22 29.87 25.65 29.02 29.74 31.29 28.15 28.77 28.31 27.99 29.84 33.83 34.08 30.66 29.27 29.49 30.67 37.47 39.97 41.32 41.69 41.53 41.04 42.80 43.82 44.24 44.71 44.94 45.13 46.12 46.53 47.27 48.54 48.48 48.47 48.72 49.09 49.76 48.97 47.14 45.44 35.79 45.62 45.75 45.73 45.41 45.11 44.55 43.64 43.23 42.03 40.24 39.23 39.17
28.74 31.19 31.06 27.30 28.86 29.10 29.17 28.37 29.17 32.78 35.77 34.21 30.75 30.55 32.18 36.99 39.33 39.09 41.26 42.60 44.69 42.51 40.18 40.89 42.08 42.89 43.84 44.71 45.89 43.51 45.32 45.79 45.10 43.45 42.65 42.47 43.49 45.35 46.10 44.81 45.14 44.86 41.94 38.51 32.44 39.66 43.91 43.27 43.55 42.68 42.61 40.72 39.91 39.40
28.45 32.84 28.87 28.40 27.20 26.95 30.78 34.01 32.98 35.79 37.20 36.71 37.49 36.63 37.24 37.49 35.73 37.14 36.81 37.55 37.56 36.83 37.85 38.28 38.07 37.27 38.13 38.84 39.84 41.17 41.15 40.50 41.25 42.07 41.22 41.28 43.19 46.05 46.52 45.48 46.03 45.09 44.03 41.80 39.67 37.88 32.74 39.42 38.13 41.42 40.87 39.79 37.75 34.84
32.68 32.23 30.23 30.54 29.56 32.95 35.03 37.10 37.69 37.50 37.58 36.77 37.92 35.85 35.41 32.92 33.87 34.84 34.24 35.12 35.20 35.11 34.17 34.23 35.07 35.74 35.25 35.28 36.25 37.24 36.44 38.20 39.13 39.79 39.57 42.90 43.95 44.13 45.57 46.53 45.52 45.80 44.30 42.71 41.18 40.15 39.21 39.39 39.43 39.56 39.07 37.87 37.26 35.51
31.92 31.20 30.11 28.53 30.91 35.66 37.56 35.19 34.96 34.37 34.98 35.22 34.77 36.56 37.15 33.44 29.52 32.16 33.74 34.17 32.68 31.57 32.30 33.33 32.75 33.18 35.52 36.59 37.54 38.05 34.92 36.33 35.45 36.20 37.21 39.23 39.63 41.08 45.28 47.06 46.69 46.04 44.99 44.03 43.70 41.31 40.50 39.51 37.70 37.53 36.15 36.43 36.51 34.74
33.15 33.82 33.71 32.44 32.35 32.31 35.16 34.24 33.17 32.77 33.51 33.40 33.78 33.81 31.98 29.08 25.57 30.94 35.12 35.32 33.53 31.53 32.52 34.24 35.79 36.40 37.01 37.36 37.39 37.63 36.28 37.08 34.95 32.84 32.82 32.91 32.84 35.06 39.81 42.58 43.77 44.94 43.87 43.19 43.26 42.21 40.78 39.41 37.22 36.80 35.75 33.94 32.44 30.92